Wind_Speed
8 11 8 12 9 2 10 12 18 23 26 27 37 41 36 27 22 14 15 21 40 38 32 35 34 33 31 30 26 26 25 24 23 22 21 19 19 19 22 18 20 17 21 27 29 32 31 32 27
6 7 12 8 5 6 11 13 17 19 28 28 37 43 40 33 26 14 13 16 30 36 30 34 31 31 32 31 27 25 25 24 25 23 21 17 17 18 18 15 13 17 23 24 28 29 29 30 25
10 8 13 7 6 9 11 14 14 21 25 29 37 42 42 37 28 12 10 19 21 40 45 33 28 21 28 27 24 25 26 22 23 19 18 19 18 10 9 12 13 19 23 25 24 27 29 28 20
15 10 14 9 6 12 13 16 15 21 22 28 36 41 42 38 28 14 6 18 21 27 38 40 35 30 24 23 19 18 16 17 13 16 15 17 14 10 9 10 16 20 22 26 22 26 32 22 15
17 13 12 16 11 11 12 12 14 17 24 28 35 40 40 37 30 17 7 7 14 21 31 37 37 34 31 25 19 15 17 13 10 11 13 10 11 9 4 9 17 20 22 28 21 26 27 20 13
20 17 14 16 14 13 13 11 10 17 20 27 32 37 38 38 31 18 11 11 7 14 27 33 34 31 25 21 17 16 16 10 11 9 7 6 5 5 6 8 17 20 24 26 23 28 23 15 12
20 19 13 17 19 16 17 14 15 18 21 26 30 34 35 38 29 17 14 15 12 11 20 27 26 25 23 20 18 14 14 16 12 10 6 8 10 4 4 8 16 22 26 28 32 25 20 9 12
21 20 15 17 18 12 12 13 15 13 19 24 28 28 32 37 26 20 14 17 16 14 16 16 19 23 23 21 17 12 14 14 13 9 9 9 12 7 5 12 17 21 18 31 31 25 12 9 14
23 21 22 20 18 18 15 17 19 20 21 21 26 23 27 32 24 24 8 13 18 15 15 15 13 16 21 23 22 15 18 13 12 9 4 4 14 8 5 13 19 20 21 34 24 21 9 12 13
27 23 23 24 21 22 20 19 21 23 17 17 17 19 22 29 23 22 18 8 9 8 11 11 13 14 14 13 24 25 18 14 13 12 10 16 10 4 7 13 16 18 22 24 27 20 11 10 16
29 28 25 26 20 18 20 14 16 14 13 12 10 15 17 22 23 17 19 14 8 7 7 16 15 11 9 10 13 19 18 17 16 14 14 13 10 4 7 10 17 20 25 16 23 19 16 9 12
34 31 29 28 22 20 19 17 12 9 8 9 6 11 13 16 21 18 13 16 11 6 8 15 17 14 14 15 14 12 14 17 15 14 13 13 12 12 7 9 16 20 17 15 17 17 19 15 17
39 37 35 33 30 27 25 20 18 16 16 11 6 7 10 11 16 19 14 12 15 17 14 7 7 11 13 10 11 10 12 13 15 16 13 11 7 8 7 9 8 15 19 10 15 15 15 17 17
43 42 40 39 39 38 34 29 25 21 17 13 10 4 7 5 9 13 15 11 11 16 20 18 19 13 8 11 10 10 10 8 12 13 12 12 12 14 12 7 5 11 17 11 12 13 15 18 19
45 46 45 45 43 41 38 36 27 20 18 13 7 4 8 3 3 7 10 12 11 8 7 9 10 9 6 5 7 9 12 15 13 13 14 13 10 5 3 3 4 6 6 9 10 12 13 16 18
45 46 48 48 47 46 43 40 37 35 32 22 15 10 10 12 4 2 3 9 13 11 12 14 14 12 13 11 3 9 12 13 16 14 16 15 9 6 2 8 3 1 9 10 9 10 13 17 20
38 45 47 46 48 49 47 44 41 37 32 27 25 19 12 15 10 10 5 4 8 9 8 13 12 11 13 18 19 11 7 14 18 15 15 18 16 13 9 7 1 3 9 8 6 7 11 15 18
33 34 39 44 46 47 49 49 44 39 36 30 27 28 20 17 18 14 12 9 10 3 9 8 11 9 8 15 19 14 11 8 16 23 18 16 19 19 13 12 8 9 7 3 3 5 6 12 15
34 33 33 34 38 45 45 46 48 46 40 33 30 27 24 21 21 17 16 12 11 6 2 2 6 5 3 8 14 16 14 11 7 17 23 20 17 17 18 9 7 10 15 6 2 2 0 6 13
30 34 36 34 34 34 37 41 44 45 45 39 30 27 26 25 24 19 18 17 14 12 3 3 5 4 5 5 8 17 16 17 11 5 16 21 21 19 17 16 13 10 14 11 5 5 3 5 7
29 32 32 34 36 33 32 33 36 42 44 43 37 34 29 28 27 28 24 22 19 12 10 6 8 8 5 7 8 10 13 17 15 11 5 14 18 18 19 16 18 15 13 10 7 11 9 9 7
19 24 26 30 33 36 35 31 30 34 40 43 43 40 35 29 34 32 30 28 25 15 14 17 10 9 11 7 2 8 11 14 15 12 9 6 17 21 22 25 25 22 20 17 10 15 14 13 10
22 24 23 22 25 31 34 37 33 32 31 37 41 42 44 37 34 35 37 32 30 26 25 26 16 14 11 12 11 7 8 17 13 11 11 6 11 15 27 23 23 22 20 19 18 20 20 17 11
26 26 25 25 26 22 28 33 37 35 34 35 37 36 39 39 35 41 40 36 35 30 23 21 17 16 16 14 15 13 15 19 13 15 17 9 7 13 19 25 25 23 21 21 23 25 22 21 17
30 28 27 27 28 26 27 29 32 37 34 36 38 41 40 38 35 42 36 41 40 36 30 29 23 20 21 19 17 17 21 24 15 16 13 10 7 10 14 20 26 27 25 24 25 28 27 25 20
34 33 30 29 30 31 29 28 28 36 38 33 35 39 36 42 41 36 36 40 40 36 34 33 26 24 23 22 19 19 20 21 20 18 13 12 9 6 9 13 21 24 30 29 30 29 28 28 27
36 37 36 36 34 33 32 30 30 32 39 37 35 34 35 39 39 44 44 42 39 36 36 31 27 29 29 29 25 19 21 22 20 19 13 9 12 8 7 9 12 18 27 35 35 35 32 31 25
34 35 36 36 36 37 37 34 31 32 35 40 43 40 34 36 39 44 40 38 40 36 39 37 31 31 33 29 28 21 18 17 21 17 12 6 7 8 5 4 7 11 17 24 37 38 38 39 35
36 37 39 38 39 39 40 39 35 33 35 38 45 48 40 34 39 48 41 40 39 42 40 36 35 31 34 30 26 20 19 17 10 14 13 7 2 6 7 1 2 4 3 14 26 38 43 42 39
36 39 38 39 37 39 42 42 42 38 37 37 43 53 51 45 37 42 45 48 43 38 35 36 37 29 29 30 23 20 20 14 9 10 11 13 8 3 2 4 12 7 6 8 13 26 38 39 38
Wind_Direction
173 214 220 227 229 308 312 341 345 341 345 356 357 355 356 350 333 293 253 224 214 215 214 219 222 227 231 237 240 244 250 258 262 270 285 295 296 308 309 318 316 325 339 343 348 352 350 356 5
266 211 223 240 285 287 305 318 327 341 345 350 348 348 354 351 340 309 251 211 213 209 216 216 219 228 233 233 233 244 256 260 267 274 282 290 292 302 304 307 315 336 339 344 347 354 357 357 14
253 245 211 242 235 266 273 303 337 335 340 338 339 348 353 353 350 329 244 221 205 205 211 210 206 216 229 231 238 247 254 262 267 271 281 282 289 291 309 313 333 338 339 346 351 357 353 359 10
249 234 210 237 223 263 273 290 330 339 335 338 338 347 355 356 1 357 248 209 206 204 201 204 205 211 216 225 239 247 255 263 267 277 280 280 279 271 294 320 339 338 346 353 357 350 350 353 8
240 230 208 233 242 275 283 291 318 332 329 338 341 348 358 0 7 12 75 171 200 205 199 203 209 220 229 227 236 248 255 257 266 268 275 277 297 276 309 344 359 341 340 347 342 345 356 359 19
230 223 227 245 240 268 267 281 280 334 327 337 341 349 360 4 11 24 72 104 149 187 194 199 210 217 222 216 227 247 252 247 241 248 251 266 245 130 354 5 355 355 356 341 346 347 356 14 41
224 241 203 230 242 253 272 281 283 297 318 329 336 351 0 5 15 29 78 95 116 149 185 195 201 208 210 214 215 200 256 241 220 220 206 217 230 247 326 4 355 352 354 352 347 349 358 62 53
226 238 227 220 243 241 261 275 294 292 315 331 332 352 2 6 17 30 79 89 114 119 143 165 193 205 199 204 199 189 232 223 212 223 254 239 239 263 326 345 339 346 343 342 348 348 14 82 69
241 240 230 226 234 236 244 257 277 288 312 329 332 354 4 7 14 30 82 98 108 105 128 134 155 175 192 195 179 203 218 209 210 195 190 241 230 252 315 349 337 329 339 343 353 4 81 85 57
241 244 240 240 239 240 236 253 273 274 312 327 330 357 6 10 19 28 44 143 126 97 133 142 151 161 173 188 194 196 215 218 204 200 198 218 231 233 4 346 3 345 344 349 11 40 82 71 38
240 242 240 237 249 251 245 237 258 275 308 312 334 4 5 14 25 32 38 65 158 108 123 156 158 158 144 176 188 198 215 221 224 228 213 233 227 233 322 337 2 0 353 1 18 55 69 54 22
241 242 242 240 231 249 251 233 253 264 287 296 327 1 5 17 34 36 44 68 88 143 165 154 156 155 148 168 182 197 209 226 227 223 232 241 255 258 289 326 351 356 355 5 21 43 66 65 45
240 242 242 238 228 226 238 238 253 266 278 290 278 341 354 13 36 36 48 67 73 80 80 105 159 187 178 178 188 218 238 235 236 231 236 245 244 245 238 298 331 345 328 9 20 45 44 52 50
239 239 242 243 241 244 240 235 257 260 263 268 263 301 317 7 29 28 36 73 86 89 96 96 87 90 140 209 230 242 243 222 227 226 235 228 241 257 260 300 331 326 332 28 21 36 53 54 53
243 239 239 243 245 246 245 246 232 235 247 246 251 252 276 284 333 48 33 66 93 97 76 71 51 71 107 185 222 241 248 247 244 238 235 233 238 242 321 204 278 316 360 34 20 42 58 65 62
247 245 242 240 245 246 245 243 244 245 244 238 243 256 259 270 207 222 69 75 81 83 86 87 76 66 54 66 10 259 241 240 241 236 234 235 227 231 290 139 73 333 40 32 17 42 60 77 68
245 247 247 246 244 245 248 249 247 246 245 248 244 250 251 260 225 223 228 147 104 79 87 90 82 67 80 53 37 15 285 239 232 237 230 233 244 234 254 219 328 10 26 43 26 53 67 83 80
247 246 245 246 246 246 248 247 248 248 250 246 241 244 247 230 243 213 228 210 151 126 86 108 121 112 101 35 19 28 12 308 240 236 235 238 241 237 222 218 266 305 317 61 53 54 84 83 88
249 250 250 249 246 246 246 247 248 247 246 244 240 237 236 225 232 216 227 224 188 197 10 104 150 190 257 356 27 30 35 19 290 246 234 233 227 230 212 226 247 243 288 316 205 82 37 112 95
250 248 247 248 249 248 248 244 244 245 243 241 232 221 218 221 222 218 215 227 214 213 232 295 237 257 268 299 346 15 20 23 26 328 247 231 231 238 240 228 244 257 268 291 261 209 210 155 116
253 250 248 246 245 246 248 249 241 240 241 237 228 220 215 233 230 225 226 215 217 232 236 314 281 254 266 288 317 1 10 16 19 18 355 218 227 226 227 220 231 241 253 255 270 209 183 174 125
258 255 253 249 246 243 243 246 248 241 237 236 232 220 222 229 230 225 228 228 226 227 249 273 306 276 273 302 350 1 358 3 358 1 4 272 225 222 215 217 221 232 244 253 235 200 177 182 168
250 256 255 253 249 242 242 241 244 242 239 238 234 230 225 225 228 223 221 220 233 245 251 257 277 273 290 287 288 308 317 338 348 343 349 311 259 235 222 225 219 223 228 231 212 205 198 197 186
249 256 255 252 249 245 238 239 236 241 235 235 233 232 234 231 230 222 216 227 237 243 241 247 255 267 272 273 288 283 293 312 328 335 353 339 264 247 236 228 226 221 219 222 227 205 202 206 199
252 247 249 248 250 244 241 237 235 239 238 234 230 225 223 226 222 216 218 224 234 240 245 252 252 259 254 265 272 276 286 299 298 329 354 351 305 261 251 243 233 227 221 222 227 213 208 209 215
255 248 245 247 246 245 242 242 234 235 235 234 234 233 223 228 218 224 224 224 234 241 244 248 251 262 255 262 262 283 289 294 291 313 317 10 340 276 251 251 251 240 227 226 223 209 211 222 230
252 251 248 246 245 247 244 241 239 235 233 234 233 236 234 231 234 238 236 236 233 236 241 238 237 258 251 261 258 272 288 292 292 304 288 348 4 316 263 251 260 253 231 223 225 221 213 220 224
253 251 251 249 243 245 245 241 239 235 233 230 226 234 233 227 225 227 236 236 241 240 237 234 242 249 249 257 271 244 255 284 292 295 272 302 347 326 266 257 277 277 256 242 232 228 218 223 233
247 248 248 246 246 252 251 244 239 237 233 230 227 225 229 229 224 226 233 236 237 238 238 233 245 244 241 254 258 243 251 250 295 287 246 232 226 309 262 168 141 356 320 251 241 231 228 224 231
246 249 252 249 248 251 252 243 240 238 238 233 231 223 227 231 229 227 230 234 240 237 235 240 240 255 247 250 251 251 233 232 269 287 247 208 197 160 48 323 14 19 70 26 258 237 230 232 234
Height
10987 10988 10989 10989 10989 10988 10988 10989 10986 10983 10978 10974 10969 10963 10957 10952 10947 10945 10942 10945 10949 10956 10961 10964 10969 10973 10976 10980 10984 10986 10988 10990 10990 10990 10991 10989 10989 10987 10984 10981 10979 10976 10971 10966 10962 10957 10952 10945 10939
10986 10986 10987 10989 10989 10987 10987 10986 10985 10982 10977 10973 10968 10962 10954 10948 10941 10938 10938 10942 10944 10953 10954 10961 10966 10971 10974 10978 10982 10985 10987 10988 10989 10989 10989 10989 10987 10985 10984 10982 10980 10975 10970 10966 10961 10955 10950 10945 10939
10984 10984 10986 10987 10987 10987 10985 10982 10981 10979 10976 10973 10967 10960 10953 10945 10937 10932 10933 10934 10938 10944 10949 10958 10964 10966 10970 10976 10980 10984 10985 10986 10987 10987 10987 10986 10985 10984 10983 10982 10979 10974 10970 10965 10960 10956 10950 10944 10941
10983 10984 10985 10985 10986 10985 10983 10982 10980 10978 10976 10973 10967 10960 10952 10943 10935 10930 10928 10931 10935 10940 10946 10953 10959 10962 10969 10975 10978 10980 10983 10984 10985 10985 10986 10984 10982 10983 10982 10981 10976 10972 10969 10965 10959 10955 10950 10945 10941
10982 10982 10982 10982 10984 10984 10983 10981 10980 10978 10976 10972 10968 10961 10953 10944 10937 10931 10929 10930 10934 10939 10944 10951 10957 10962 10968 10973 10976 10978 10980 10981 10982 10984 10984 10982 10981 10983 10982 10979 10975 10972 10968 10963 10959 10954 10948 10944 10941
10978 10979 10980 10980 10982 10982 10981 10980 10979 10977 10976 10973 10968 10962 10954 10946 10939 10934 10931 10931 10934 10937 10942 10949 10956 10962 10966 10970 10974 10977 10978 10980 10981 10981 10984 10983 10981 10981 10982 10978 10975 10972 10967 10962 10957 10952 10948 10943 10941
10975 10976 10978 10978 10980 10980 10979 10979 10978 10977 10975 10973 10970 10964 10957 10949 10943 10939 10935 10935 10937 10939 10943 10949 10954 10960 10965 10968 10972 10976 10976 10978 10980 10982 10983 10984 10981 10981 10981 10977 10976 10972 10967 10963 10957 10952 10948 10944 10942
10973 10974 10976 10976 10976 10978 10978 10978 10978 10976 10976 10974 10970 10966 10961 10954 10948 10943 10940 10940 10940 10942 10945 10950 10954 10958 10962 10966 10970 10974 10976 10977 10977 10981 10981 10982 10980 10981 10981 10979 10977 10973 10968 10963 10958 10953 10948 10945 10943
10970 10972 10973 10973 10974 10975 10975 10977 10976 10974 10976 10975 10972 10967 10963 10958 10952 10947 10946 10945 10944 10947 10948 10951 10953 10956 10959 10964 10968 10970 10974 10974 10976 10979 10980 10980 10980 10981 10981 10980 10977 10973 10969 10965 10959 10952 10948 10947 10945
10966 10968 10970 10971 10972 10973 10973 10975 10975 10975 10977 10976 10973 10970 10966 10962 10956 10952 10949 10949 10949 10949 10950 10953 10955 10958 10960 10962 10965 10969 10971 10973 10975 10978 10978 10978 10979 10981 10981 10980 10977 10974 10970 10966 10961 10953 10950 10950 10948
10961 10964 10966 10968 10968 10971 10971 10972 10973 10974 10976 10976 10974 10971 10969 10966 10961 10958 10954 10951 10953 10952 10953 10955 10957 10960 10961 10963 10966 10969 10971 10972 10974 10976 10978 10978 10978 10980 10981 10980 10976 10973 10970 10968 10963 10958 10954 10953 10951
10957 10960 10961 10963 10966 10967 10968 10969 10971 10974 10975 10976 10974 10971 10970 10968 10965 10961 10959 10956 10956 10955 10955 10957 10958 10960 10963 10966 10967 10969 10970 10972 10973 10974 10975 10977 10978 10980 10981 10979 10977 10974 10972 10969 10967 10963 10959 10955 10952
10952 10954 10957 10959 10962 10964 10964 10967 10969 10971 10974 10974 10973 10972 10972 10970 10967 10965 10963 10960 10959 10958 10958 10958 10959 10961 10964 10966 10968 10968 10968 10969 10971 10973 10974 10975 10976 10978 10979 10979 10977 10975 10973 10971 10969 10966 10962 10958 10954
10946 10949 10951 10952 10954 10956 10959 10964 10966 10968 10972 10973 10973 10972 10972 10971 10969 10967 10965 10963 10962 10962 10961 10961 10962 10962 10964 10965 10967 10967 10967 10968 10970 10972 10973 10974 10975 10976 10978 10978 10977 10974 10973 10973 10971 10967 10964 10962 10958
10936 10941 10943 10944 10947 10950 10954 10958 10962 10964 10967 10971 10971 10971 10971 10972 10970 10968 10967 10965 10963 10964 10963 10963 10963 10964 10965 10966 10966 10966 10965 10966 10968 10969 10971 10972 10974 10975 10976 10976 10975 10974 10973 10974 10972 10969 10966 10965 10963
10927 10930 10933 10937 10940 10943 10946 10950 10955 10958 10962 10966 10968 10970 10970 10971 10970 10970 10968 10967 10965 10964 10963 10963 10964 10964 10965 10966 10964 10962 10963 10963 10965 10966 10967 10969 10971 10973 10975 10975 10974 10974 10974 10974 10974 10971 10969 10967 10966
10918 10921 10925 10928 10932 10935 10939 10944 10948 10951 10956 10961 10965 10966 10967 10969 10968 10970 10968 10966 10966 10966 10964 10964 10965 10964 10965 10966 10965 10962 10959 10959 10961 10963 10964 10966 10967 10970 10972 10973 10973 10973 10974 10975 10974 10974 10972 10971 10970
10912 10914 10916 10919 10924 10927 10929 10934 10939 10944 10948 10954 10959 10961 10962 10965 10966 10967 10969 10966 10965 10967 10966 10965 10965 10966 10965 10965 10964 10961 10958 10955 10956 10958 10960 10962 10964 10967 10969 10971 10972 10973 10974 10974 10974 10975 10975 10973 10972
10905 10907 10909 10912 10915 10918 10921 10924 10929 10934 10940 10946 10952 10956 10957 10960 10961 10963 10966 10967 10965 10966 10966 10966 10966 10966 10965 10965 10964 10962 10959 10957 10954 10954 10956 10959 10960 10962 10966 10967 10970 10972 10973 10975 10974 10976 10977 10976 10975
10897 10900 10903 10905 10907 10910 10912 10915 10918 10923 10930 10937 10943 10949 10953 10954 10957 10959 10962 10964 10964 10964 10964 10964 10965 10965 10965 10964 10963 10962 10959 10956 10954 10952 10951 10953 10956 10958 10962 10964 10967 10969 10971 10973 10974 10975 10977 10978 10977
10890 10892 10894 10898 10900 10902 10905 10906 10909 10912 10918 10925 10935 10942 10946 10949 10952 10953 10957 10960 10961 10960 10962 10963 10963 10964 10964 10963 10962 10961 10959 10956 10954 10951 10949 10950 10952 10955 10958 10961 10964 10967 10969 10972 10973 10974 10977 10979 10979
10885 10884 10887 10890 10892 10895 10896 10899 10901 10906 10909 10914 10923 10933 10939 10942 10945 10948 10951 10954 10956 10956 10958 10960 10961 10963 10963 10962 10961 10960 10958 10956 10952 10950 10948 10948 10949 10951 10954 10957 10960 10964 10966 10969 10972 10973 10976 10977 10978
10878 10877 10879 10881 10882 10885 10889 10891 10895 10898 10901 10905 10912 10920 10929 10935 10939 10943 10945 10948 10950 10952 10954 10955 10957 10959 10959 10959 10960 10958 10957 10956 10953 10951 10949 10947 10946 10947 10949 10952 10955 10959 10962 10966 10970 10971 10974 10976 10977
10872 10872 10873 10874 10874 10878 10878 10882 10887 10890 10895 10899 10904 10911 10918 10925 10931 10936 10939 10940 10944 10946 10949 10951 10953 10955 10956 10956 10957 10957 10955 10955 10953 10951 10947 10945 10944 10944 10945 10946 10950 10953 10957 10960 10965 10968 10970 10973 10974
10864 10865 10866 10866 10867 10870 10871 10873 10880 10882 10887 10891 10897 10902 10909 10916 10921 10927 10931 10935 10938 10940 10943 10945 10948 10950 10952 10952 10953 10954 10954 10953 10953 10950 10948 10945 10942 10941 10941 10942 10945 10948 10952 10955 10959 10964 10965 10969 10972
10854 10857 10858 10859 10859 10861 10864 10867 10871 10872 10877 10883 10888 10894 10901 10906 10912 10919 10925 10928 10931 10934 10937 10939 10942 10944 10946 10949 10949 10949 10950 10950 10950 10949 10946 10943 10940 10939 10939 10940 10941 10943 10947 10951 10954 10957 10961 10964 10967
10844 10846 10850 10850 10850 10851 10855 10860 10863 10865 10869 10875 10880 10883 10890 10897 10903 10909 10916 10922 10925 10928 10930 10934 10937 10938 10941 10942 10944 10945 10946 10946 10946 10946 10944 10942 10939 10937 10937 10938 10939 10940 10942 10945 10948 10952 10955 10960 10964
10834 10837 10839 10841 10843 10842 10846 10851 10854 10858 10861 10866 10870 10874 10881 10888 10895 10900 10905 10912 10917 10920 10923 10927 10931 10934 10935 10937 10938 10940 10942 10943 10942 10942 10940 10940 10939 10938 10937 10935 10934 10936 10938 10940 10943 10945 10949 10953 10957
10823 10824 10828 10831 10833 10834 10835 10840 10845 10848 10852 10857 10861 10867 10873 10879 10886 10890 10896 10901 10906 10910 10914 10918 10923 10926 10929 10931 10933 10934 10936 10939 10938 10938 10938 10937 10937 10937 10935 10933 10932 10932 10934 10935 10934 10939 10943 10946 10949
10810 10814 10817 10821 10825 10823 10822 10829 10834 10840 10843 10848 10852 10859 10864 10870 10876 10882 10887 10892 10897 10901 10905 10910 10915 10918 10921 10925 10927 10929 10930 10933 10934 10933 10934 10934 10934 10934 10933 10933 10932 10931 10931 10931 10930 10931 10935 10939 10941